This is the latest recevied weather packets stored in our database for station/object KR4ELZ. If no packets are shown the sender has not sent any weather packets the latest 10 day(s).
| Time | Temp. | Humidity | Pressure | Rain* | Wind** | Luminosity | Snow |
|---|---|---|---|---|---|---|---|
| 1777320891 | 28.33° C | 68% | 1010.8 hPa | 0 mm | - | 157 W/m² | - |
| 1777320589 | 28.33° C | 67% | 1011.1 hPa | 0 mm | - | 174 W/m² | - |
| 1777320286 | 28.33° C | 68% | 1011.2 hPa | 0 mm | - | 155 W/m² | - |
| 1777319982 | 27.78° C | 68% | 1011.3 hPa | 0 mm | - | 113 W/m² | - |
| 1777319680 | 28.33° C | 68% | 1011.4 hPa | 0 mm | - | 65 W/m² | - |
| 1777319377 | 27.78° C | 68% | 1011.4 hPa | 0 mm | - | 162 W/m² | - |
| 1777319074 | 28.33° C | 69% | 1011.4 hPa | 0 mm | - | 65 W/m² | - |
| 1777318771 | 28.33° C | 67% | 1011.5 hPa | 0 mm | - | 82 W/m² | - |
| 1777318466 | 28.33° C | 66% | 1011.4 hPa | 0 mm | - | 148 W/m² | - |
| 1777318164 | 28.33° C | 67% | 1011.5 hPa | 0 mm | - | 156 W/m² | - |
| 1777317861 | 28.33° C | 67% | 1011.5 hPa | 0 mm | - | 271 W/m² | - |
| 1777317558 | 28.33° C | 67% | 1011.6 hPa | 0 mm | - | 189 W/m² | - |
| 1777317255 | 27.78° C | 67% | 1011.9 hPa | 0 mm | - | 251 W/m² | - |
| 1777316950 | 27.78° C | 68% | 1011.8 hPa | 0 mm | - | 141 W/m² | - |
| 1777316648 | 28.33° C | 68% | 1012 hPa | 0 mm | - | 150 W/m² | - |
| 1777316344 | 27.78° C | 69% | 1012 hPa | 0 mm | - | 354 W/m² | - |
| 1777316041 | 27.78° C | 69% | 1012.1 hPa | 0 mm | - | 84 W/m² | - |
| 1777315741 | 28.33° C | 67% | 1012 hPa | 0 mm | - | 76 W/m² | - |
| 1777315437 | 28.89° C | 66% | 1012 hPa | 0 mm | - | 222 W/m² | - |
| 1777315135 | 28.89° C | 66% | 1012.1 hPa | 0 mm | - | 210 W/m² | - |
| 1777314831 | 28.33° C | 67% | 1012.1 hPa | 0 mm | - | 221 W/m² | - |
| 1777314527 | 28.89° C | 66% | 1012.1 hPa | 0 mm | - | 182 W/m² | - |
| 1777314224 | 28.33° C | 68% | 1012.2 hPa | 0 mm | - | 187 W/m² | - |
| 1777313922 | 27.78° C | 68% | 1012.6 hPa | 0 mm | - | 285 W/m² | - |
| 1777313619 | 27.78° C | 68% | 1012.7 hPa | 0 mm | - | 223 W/m² | - |
* Rain latest hour (hover to see other rain measurements)
** Current wind speed in m/s (hover to see current wind gust speed)